• Join FlightAware (Why Join?)
  • Login
  • US Flag 
06:34AM EDT


 

Airport Tracker/Info


-or-


 

Live Flight TrackerFlight Track Log ✈ SWA34 ✈ 25-Apr-2013 ✈ KDAL - KTUL

Flight Track Log - Related Links

Times and Time Zones

All times are in EDT time to prevent confusion due to time zone crossing. See the SWA34 flight status page for this flight to view local times or setup timezone preferences in your user account.

Time Position Orientation Groundspeed Altitude Reporting Facility
EDT Latitude Longitude Course Direction KTS MPH feet Rate Location/Type
05:48PM 32.8333 -96.8333 128° Southeast 177 204 1,400  Level Dallas / Fort Worth TRACON
05:49PM 32.8000 -96.7833 128° Southeast 214 246 4,400 2,760 Climbing Dallas / Fort Worth TRACON
05:50PM 32.7667 -96.7333 128° Southeast 246 283 6,700 2,280 Climbing Dallas / Fort Worth TRACON
05:51PM 32.8167 -96.7000 29° Northeast 291 335 9,000 2,280 Climbing Dallas / Fort Worth TRACON
05:52PM 32.9000 -96.7333 341° North 317 365 11,600 2,340 Climbing Dallas / Fort Worth TRACON
05:54PM 33.1367 -96.8306 341° North 384 442 17,000 2,220 Climbing Fort Worth Center
05:55PM 33.2392 -96.8744 340° North 395 455 19,300 2,220 Climbing Fort Worth Center
05:56PM 33.3458 -96.9186 341° North 395 455 21,500 1,800 Climbing Fort Worth Center
05:57PM 33.4461 -96.9528 344° North 400 460 22,900 1,440 Climbing Fort Worth Center
05:58PM 33.5692 -96.9175 13° North 428 493 24,400 1,320 Climbing Fort Worth Center
05:59PM 33.6922 -96.8692 18° North 444 511 25,600 1,200 Climbing Fort Worth Center
06:00PM 33.8297 -96.8158 18° North 463 533 26,900 1,440 Climbing Fort Worth Center
06:01PM 33.9567 -96.7650 18° North 468 539 28,500 1,500 Climbing Fort Worth Center
06:02PM 34.0817 -96.7139 19° North 468 539 30,000 1,680 Climbing Fort Worth Center
06:03PM 34.1858 -96.6728 18° North 459 528 31,900 1,440 Climbing Fort Worth Center
06:04PM 34.3067 -96.6267 17° North 454 522 32,900 540 Climbing Fort Worth Center
06:05PM 34.4292 -96.5750 19° North 449 517 33,000  Climbing Fort Worth Center
06:06PM 34.5542 -96.5183 20° North 459 528 33,000  Level Fort Worth Center
06:07PM 34.6747 -96.4667 19° North 464 534 33,000 -300 Level Fort Worth Center
06:08PM 34.7994 -96.4197 17° North 464 534 32,500 -960 Descending Fort Worth Center
06:09PM 34.9183 -96.3956 North 449 517 31,100 -1,800 Descending Fort Worth Center
06:10PM 35.0514 -96.3686 North 444 511 29,000 -2,160 Descending Fort Worth Center
06:11PM 35.1681 -96.3367 13° North 439 505 26,800 -2,340 Descending Fort Worth Center
06:12PM 35.2886 -96.2842 20° North 439 505 24,400 -2,700 Descending Fort Worth Center
06:14PM 35.5656 -96.1642 19° North 434 499 17,600 -2,880 Descending Kansas City Center
06:15PM 35.6772 -96.1353 12° North 410 472 14,500 -3,060 Descending Kansas City Center
06:16PM 35.7167 -96.1311 North 403 464 13,500 -3,000 Descending Kansas City Center
06:17PM 35.7850 -96.1128 12° North 398 458 11,500 -2,880 Descending Kansas City Center
06:17PM 35.8300 -96.1067 North 378 435 10,300 -1,560 Descending Kansas City Center
06:18PM 35.8844 -96.0922 12° North 378 435 9,900 -780 Descending Kansas City Center
06:18PM 35.9203 -96.0847 10° North 314 361 9,600 -1,380 Descending Kansas City Center
06:19PM 35.9664 -96.0722 12° North 328 377 8,500 -1,980 Descending Kansas City Center
06:19PM 36.0069 -96.0661 North 284 327 7,600 -1,740 Descending Kansas City Center
06:20PM 36.0458 -96.0594 North 303 349 6,800 -1,500 Descending Kansas City Center
06:20PM 36.0944 -96.0600 359° North 261 300 5,800 -1,920 Descending Kansas City Center
06:21PM 36.1311 -96.0572 North 261 300 4,800 -1,800 Descending Kansas City Center
06:21PM 36.1594 -96.0594 356° North 225 259 4,000 -1,680 Descending Kansas City Center
06:22PM 36.1844 -96.0400 32° Northeast 229 264 3,100 -1,260 Descending Kansas City Center
06:23PM 36.1953 -95.9806 77° East 191 220 2,000 -900 Descending Kansas City Center
06:24PM 36.1942 -95.9325 92° East 162 186 1,300 -600 Descending Kansas City Center
06:25PM 36.1950 -95.8797 89° East 151 174 900 -420 Descending Kansas City Center
06:27PM 36.1833 -95.8833 26° Northeast  Level FlightAware Approximate
06:34PM 36.1984 -95.8881 26° Northeast  Level Estimated